Weather History for PABR - October, 2013

Change the Weather History Date:

Saturday, October 12, 2013

  Actual Average Record
Temperature  
Mean Temperature 28 °F 20 °F  
Max Temperature 31 °F 24 °F 37 °F (2009)
Min Temperature 25 °F 15 °F -13 °F (1988)
Degree Days  
Heating Degree Days 37 45  
Month to date heating degree days 486 505  
Since 1 July heating degree days 2899 3045  
Cooling Degree Days 0    
Month to date cooling degree days 0  
Year to date cooling degree days 0  
Moisture  
Dew Point 27 °F    
Average Humidity 0    
Maximum Humidity 0    
Minimum Humidity 0    
Precipitation  
Precipitation 0.01 in 0.02 in 0.45 in (1972)
Month to date precipitation 0.09 0.19  
Year to date precipitation 6.40 3.96  
Snow  
Snow T in 0.30 in 5.10 in (1972)
Month to date snowfall 1.5 3.3  
Since 1 July snowfall 10.7 8.8  
Since 1 September snowfall 9.6 7.7  
Snow Depth 2.00 in    
Sea Level Pressure  
Sea Level Pressure 29.70 in    
Wind  
Wind Speed 10 mph (SW)    
Max Wind Speed 16 mph    
Max Gust Speed 16 mph    
Visibility 6 miles    
Events Fog , Rain , Snow    
T = Trace of Precipitation, MM = Missing Value Source: NWS Daily Summary

Daily Weather History Graph

Daily Weather History Graph

Search for Another Location

Airport or City:

Trip Planner

Search our weather history database for the weather conditions in past years. The results will help you decide how hot, cold, wet, or windy it might be!

Date:

Astronomy

Oct. 12, 2013 Rise Set
Actual Time 9:35 AM AKDT 6:49 PM AKDT
Civil Twilight 8:28 AM AKDT 7:55 PM AKDT
Nautical Twilight 7:13 AM AKDT 9:10 PM AKDT
Astronomical Twilight 5:52 AM AKDT 10:31 PM AKDT
Moon 6:34 PM AKDT (10/12) No Moon Set
Length of Visible Light 11h 27m
Length of Day
9h 13m
First Quarter, 60% of the Moon is Illuminated
Oct 12
First Quarter
Oct 18
Full
Oct 26
Last Quarter
Nov 3
New
Nov 9
First Quarter

Hourly Weather History & Observations

Time (AKDT) Temp. Windchill Dew Point Humidity Pressure Visibility Wind Dir Wind Speed Gust Speed Precip Events Conditions
12:09 AM 26.6 °F 15.2 °F 24.8 °F 93% 29.64 in 10.0 mi ESE 13.8 mph - N/A   Overcast
12:53 AM 27.0 °F 15.6 °F 25.0 °F 92% 29.65 in 10.0 mi ESE 13.8 mph - 0.00 in Rain , Snow Light Freezing Rain
1:00 AM 26.6 °F 14.7 °F 24.8 °F 93% 29.64 in 10.0 mi ESE 15.0 mph - 0.00 in Rain , Snow Light Freezing Rain
1:13 AM 26.6 °F 14.3 °F 24.8 °F 93% 29.64 in 10.0 mi ESE 16.1 mph - 0.00 in Rain , Snow Light Freezing Rain
1:38 AM 26.6 °F 14.7 °F 24.8 °F 93% 29.64 in 9.0 mi ESE 15.0 mph - 0.00 in   Overcast
1:53 AM 26.1 °F 15.0 °F 23.0 °F 88% 29.65 in 10.0 mi ESE 12.7 mph - 0.00 in   Overcast
2:53 AM 25.0 °F 13.1 °F 23.0 °F 92% 29.63 in 10.0 mi SE 13.8 mph - N/A   Mostly Cloudy
3:33 AM 24.8 °F 13.4 °F 23.0 °F 93% 29.63 in 10.0 mi SE 12.7 mph - N/A   Mostly Cloudy
3:53 AM 26.1 °F 15.0 °F 24.1 °F 92% 29.63 in 10.0 mi SE 12.7 mph - N/A   Overcast
4:39 AM 28.4 °F 18.5 °F 26.6 °F 93% 29.63 in 10.0 mi SSE 11.5 mph - 0.00 in Rain Light Freezing Rain
4:53 AM 30.0 °F 19.1 °F 28.0 °F 92% 29.63 in 8.0 mi SSE 15.0 mph - 0.01 in Rain Light Freezing Rain
5:00 AM 30.2 °F 20.2 °F 28.4 °F 93% 29.63 in 9.0 mi SSE 12.7 mph - 0.00 in Rain , Snow Light Freezing Rain
5:17 AM 30.2 °F 21.3 °F 28.4 °F 93% 29.63 in 9.0 mi SSE 10.4 mph - 0.00 in   Overcast
5:48 AM 30.2 °F 21.3 °F 28.4 °F 93% 29.63 in 10.0 mi SSE 10.4 mph - 0.00 in Rain Light Freezing Rain
5:53 AM 30.0 °F 20.5 °F 28.0 °F 92% 29.63 in 10.0 mi SSE 11.5 mph - 0.00 in Rain Light Freezing Rain
6:08 AM 30.2 °F 21.3 °F 28.4 °F 93% 29.63 in 10.0 mi SSE 10.4 mph - 0.00 in   Overcast
6:53 AM 28.0 °F 19.3 °F 26.1 °F 92% 29.63 in 10.0 mi SSE 9.2 mph - 0.00 in   Overcast
7:53 AM 28.9 °F 20.4 °F 27.0 °F 92% 29.65 in 10.0 mi SSE 9.2 mph - N/A   Overcast
8:53 AM 28.9 °F 21.1 °F 27.0 °F 92% 29.65 in 10.0 mi South 8.1 mph - N/A   Overcast
9:43 AM 28.4 °F 19.7 °F 26.6 °F 93% 29.65 in 5.0 mi SSW 9.2 mph - N/A   Overcast
9:48 AM 28.4 °F 19.7 °F 26.6 °F 93% 29.65 in 0.8 mi SSW 9.2 mph - N/A   Overcast
9:53 AM 28.9 °F 20.4 °F 27.0 °F 92% 29.66 in 0.2 mi SSW 9.2 mph - N/A Fog Light Freezing Fog
9:57 AM 28.4 °F 19.7 °F 26.6 °F 93% 29.66 in 0.2 mi SSW 9.2 mph - N/A Fog Light Freezing Fog
10:37 AM 28.4 °F 20.4 °F 26.6 °F 93% 29.66 in 0.2 mi SW 8.1 mph - N/A Fog Light Freezing Fog
10:46 AM 30.2 °F 20.8 °F 28.4 °F 93% 29.66 in 1.0 mi WSW 11.5 mph - N/A   Overcast
10:53 AM 30.0 °F 21.1 °F 28.9 °F 96% 29.67 in 1.8 mi WSW 10.4 mph - N/A   Overcast
11:04 AM 30.2 °F 20.8 °F 28.4 °F 93% 29.67 in 1.0 mi WSW 11.5 mph - N/A   Overcast
11:13 AM 28.4 °F 19.1 °F 28.4 °F 100% 29.67 in 0.5 mi WSW 10.4 mph - N/A Fog Light Freezing Fog
11:21 AM 28.4 °F 18.5 °F 28.4 °F 100% 29.67 in 0.5 mi WSW 11.5 mph - N/A Fog Light Freezing Fog
11:53 AM 30.0 °F 20.5 °F 28.0 °F 92% 29.68 in 0.2 mi WSW 11.5 mph - N/A Fog Light Freezing Fog
12:28 PM 30.2 °F 19.8 °F 28.4 °F 93% 29.68 in 0.2 mi WSW 13.8 mph - N/A Fog Light Freezing Fog
12:53 PM 30.0 °F 20.5 °F 28.9 °F 96% 29.70 in 0.2 mi WSW 11.5 mph - N/A Fog Light Freezing Fog
1:01 PM 30.2 °F 19.3 °F 28.4 °F 93% 29.69 in 0.5 mi WSW 15.0 mph - N/A Fog Light Freezing Fog
1:05 PM 30.2 °F 20.2 °F 28.4 °F 93% 29.70 in 1.0 mi SW 12.7 mph - N/A   Mist
1:15 PM 30.2 °F 19.3 °F 28.4 °F 93% 29.70 in 0.8 mi SW 15.0 mph - N/A   Mist
1:22 PM 30.2 °F 19.8 °F 28.4 °F 93% 29.70 in 2.0 mi SW 13.8 mph - N/A   Overcast
1:30 PM 30.2 °F 20.2 °F 28.4 °F 93% 29.70 in 8.0 mi WSW 12.7 mph - N/A   Overcast
1:48 PM 30.2 °F 20.2 °F 28.4 °F 93% 29.71 in 2.0 mi SW 12.7 mph - N/A   Overcast
1:53 PM 30.0 °F 21.1 °F 28.0 °F 92% 29.72 in 2.5 mi SW 10.4 mph - N/A   Overcast
1:58 PM 30.2 °F 20.2 °F 28.4 °F 93% 29.72 in 4.0 mi WSW 12.7 mph - N/A   Overcast
2:22 PM 30.2 °F 20.8 °F 28.4 °F 93% 29.72 in 2.0 mi WSW 11.5 mph - N/A   Overcast
2:32 PM 30.2 °F 21.9 °F 26.6 °F 86% 29.72 in 8.0 mi SW 9.2 mph - N/A   Overcast
2:43 PM 30.2 °F 19.8 °F 28.4 °F 93% 29.72 in 1.8 mi WSW 13.8 mph - 0.00 in Snow Light Snow
2:51 PM 30.2 °F 21.3 °F 28.4 °F 93% 29.72 in 2.5 mi West 10.4 mph - 0.00 in Snow Light Snow
2:53 PM 30.0 °F 21.7 °F 28.0 °F 92% 29.73 in 3.0 mi West 9.2 mph - 0.00 in Snow Light Snow
2:57 PM 30.2 °F 21.9 °F 28.4 °F 93% 29.72 in 4.0 mi West 9.2 mph - 0.00 in Snow Light Snow
3:17 PM 30.2 °F 23.4 °F 28.4 °F 93% 29.73 in 4.0 mi West 6.9 mph - 0.00 in   Mostly Cloudy
3:53 PM 30.0 °F 20.5 °F 28.0 °F 92% 29.73 in 10.0 mi West 11.5 mph - 0.00 in   Mostly Cloudy
4:49 PM 30.2 °F 21.9 °F 26.6 °F 86% 29.74 in 10.0 mi West 9.2 mph - 0.00 in   Overcast
4:53 PM 30.0 °F 22.4 °F 27.0 °F 88% 29.74 in 10.0 mi West 8.1 mph - 0.00 in   Overcast
5:21 PM 28.4 °F 19.7 °F 26.6 °F 93% 29.74 in 8.0 mi West 9.2 mph - 0.00 in Snow Light Snow
5:48 PM 30.2 °F 23.4 °F 28.4 °F 93% 29.75 in 3.0 mi West 6.9 mph - 0.00 in Snow Light Snow
5:53 PM 30.0 °F 22.4 °F 28.9 °F 96% 29.75 in 2.5 mi West 8.1 mph - 0.00 in Snow Light Snow
6:13 PM 30.2 °F 20.8 °F 28.4 °F 93% 29.76 in 8.0 mi West 11.5 mph - 0.00 in   Overcast
6:53 PM 30.0 °F 20.5 °F 26.1 °F 85% 29.77 in 10.0 mi West 11.5 mph - 0.00 in   Overcast
7:04 PM 30.2 °F 21.3 °F 26.6 °F 86% 29.77 in 10.0 mi West 10.4 mph - N/A   Overcast
7:53 PM 28.9 °F 19.2 °F 26.1 °F 89% 29.78 in 9.0 mi WNW 11.5 mph - N/A   Overcast
8:53 PM 28.0 °F 20.0 °F 25.0 °F 88% 29.78 in 10.0 mi WNW 8.1 mph - 0.00 in   Overcast
9:53 PM 28.9 °F 21.9 °F 26.1 °F 89% 29.81 in 10.0 mi NW 6.9 mph - N/A   Overcast
10:33 PM 28.4 °F 23.3 °F 26.6 °F 93% 29.81 in 2.0 mi NW 4.6 mph - 0.00 in Snow Light Snow
10:53 PM 28.9 °F 21.9 °F 25.0 °F 85% 29.81 in 7.0 mi NNW 6.9 mph - 0.00 in   Overcast
11:37 PM 28.4 °F 20.4 °F 26.6 °F 93% 29.81 in 2.5 mi NNW 8.1 mph - 0.00 in Snow Light Snow
11:40 PM 28.4 °F 22.2 °F 26.6 °F 93% 29.81 in 3.0 mi NNW 5.8 mph - 0.00 in Snow Light Snow
11:53 PM 28.9 °F 25.2 °F 27.0 °F 92% 29.82 in 4.0 mi NNW 3.5 mph - 0.00 in Snow Light Snow